Location: Newark
(17.1458°N, 89.0741°W)
Time: 10:50:42
(UTC+00:00)

ISS - Visible Passes

Search period start: 17 October 2019 00:00
Search period end: 27 October 2019 00:00
Orbit: 411 x 421 km, 51.6° (Epoch: 17 October)

Date Brightness Start Highest point End Pass type
(mag) Time Alt. Az. Time Alt. Az. Time Alt. Az.
17 Oct -0.6 00:01:15 10° W 00:03:04 14° SW 00:04:54 10° SSW visible
20 Oct -1.1 10:54:42 10° S 10:57:21 22° SE 11:00:01 10° ENE visible
21 Oct -0.2 10:08:44 10° SE 10:08:55 10° ESE 10:09:04 10° ESE visible
22 Oct -3.9 10:54:01 14° SW 10:56:47 73° NW 11:00:08 10° NNE visible
23 Oct -2.1 10:09:09 35° E 10:09:09 35° E 10:11:29 10° NE visible
24 Oct -1.9 10:56:54 16° NW 10:56:54 16° NW 10:58:38 10° N visible
